Data supplied by UK-AIR on 5/4/2008
All Data GMT hour ending 
Status: R =Ratified P=Provisional,P*=As supplied
,,Rochester Stoke,,,,,,,,,,,,,,,,,,,,,,,
Date,time,"PM10 particulate matter (Hourly measured)",status,unit,"Nitric oxide",status,unit,"Nitrogen dioxide",status,unit,"Nitrogen oxides as nitrogen dioxide",status,unit,"Ozone",status,unit,"PM2.5 particulate matter (Hourly measured)",status,unit,"Sulphur dioxide",status,unit
 
01-01-2005,01:00,12,R,ugm-3 (GRAV EQ),,,,,,,,,,,,,8,R,ugm-3 (TEOM),,,
01-01-2005,02:00,27,R,ugm-3 (GRAV EQ),,,,,,,,,,24,R,ugm-3,19,R,ugm-3 (TEOM),0.0,R,ugm-3
01-01-2005,03:00,23,R,ugm-3 (GRAV EQ),0.4,R,ugm-3,22.5,R,ugm-3,23.1,R,ugm-3,24,R,ugm-3,16,R,ugm-3 (TEOM),0.0,R,ugm-3
01-01-2005,04:00,18,R,ugm-3 (GRAV EQ),0.8,R,ugm-3,19.3,R,ugm-3,20.4,R,ugm-3,28,R,ugm-3,13,R,ugm-3 (TEOM),0.0,R,ugm-3
01-01-2005,05:00,12,R,ugm-3 (GRAV EQ),1.0,R,ugm-3,11.8,R,ugm-3,13.4,R,ugm-3,32,R,ugm-3,8,R,ugm-3 (TEOM),0.0,R,ugm-3
01-01-2005,06:00,12,R,ugm-3 (GRAV EQ),0.4,R,ugm-3,10.7,R,ugm-3,11.3,R,ugm-3,34,R,ugm-3,7,R,ugm-3 (TEOM),0.0,R,ugm-3
01-01-2005,07:00,14,R,ugm-3 (GRAV EQ),0.4,R,ugm-3,12.2,R,ugm-3,12.8,R,ugm-3,38,R,ugm-3,9,R,ugm-3 (TEOM),0.8,R,ugm-3
01-01-2005,08:00,10,R,ugm-3 (GRAV EQ),0.4,R,ugm-3,16.4,R,ugm-3,17.0,R,ugm-3,44,R,ugm-3,6,R,ugm-3 (TEOM),0.0,R,ugm-3
01-01-2005,09:00,8,R,ugm-3 (GRAV EQ),0.8,R,ugm-3,12.8,R,ugm-3,13.9,R,ugm-3,52,R,ugm-3,5,R,ugm-3 (TEOM),0.0,R,ugm-3
01-01-2005,10:00,8,R,ugm-3 (GRAV EQ),1.4,R,ugm-3,9.2,R,ugm-3,11.3,R,ugm-3,58,R,ugm-3,4,R,ugm-3 (TEOM),1.3,R,ugm-3
01-01-2005,11:00,10,R,ugm-3 (GRAV EQ),1.4,R,ugm-3,9.2,R,ugm-3,11.3,R,ugm-3,56,R,ugm-3,5,R,ugm-3 (TEOM),0.0,R,ugm-3
01-01-2005,12:00,9,R,ugm-3 (GRAV EQ),2.4,R,ugm-3,11.3,R,ugm-3,14.9,R,ugm-3,54,R,ugm-3,3,R,ugm-3 (TEOM),10.6,R,ugm-3
01-01-2005,13:00,8,R,ugm-3 (GRAV EQ),1.8,R,ugm-3,10.1,R,ugm-3,12.8,R,ugm-3,62,R,ugm-3,3,R,ugm-3 (TEOM),13.8,R,ugm-3
01-01-2005,14:00,4,R,ugm-3 (GRAV EQ),1.0,R,ugm-3,4.2,R,ugm-3,5.7,R,ugm-3,68,R,ugm-3,2,R,ugm-3 (TEOM),0.0,R,ugm-3
01-01-2005,15:00,7,R,ugm-3 (GRAV EQ),0.4,R,ugm-3,6.9,R,ugm-3,7.4,R,ugm-3,66,R,ugm-3,3,R,ugm-3 (TEOM),0.0,R,ugm-3
01-01-2005,16:00,9,R,ugm-3 (GRAV EQ),0.8,R,ugm-3,5.9,R,ugm-3,7.1,R,ugm-3,64,R,ugm-3,4,R,ugm-3 (TEOM),0.0,R,ugm-3
01-01-2005,17:00,8,R,ugm-3 (GRAV EQ),0.4,R,ugm-3,5.7,R,ugm-3,6.3,R,ugm-3,66,R,ugm-3,4,R,ugm-3 (TEOM),0.0,R,ugm-3
01-01-2005,18:00,4,R,ugm-3 (GRAV EQ),0.4,R,ugm-3,5.7,R,ugm-3,6.3,R,ugm-3,66,R,ugm-3,3,R,ugm-3 (TEOM),0.0,R,ugm-3
01-01-2005,19:00,3,R,ugm-3 (GRAV EQ),0.0,R,ugm-3,5.9,R,ugm-3,5.9,R,ugm-3,64,R,ugm-3,3,R,ugm-3 (TEOM),1.3,R,ugm-3
01-01-2005,20:00,9,R,ugm-3 (GRAV EQ),0.4,R,ugm-3,17.6,R,ugm-3,18.1,R,ugm-3,56,R,ugm-3,3,R,ugm-3 (TEOM),8.8,R,ugm-3
01-01-2005,21:00,22,R,ugm-3 (GRAV EQ),1.4,R,ugm-3,24.4,R,ugm-3,26.5,R,ugm-3,52,R,ugm-3,8,R,ugm-3 (TEOM),14.1,R,ugm-3
01-01-2005,22:00,18,R,ugm-3 (GRAV EQ),0.4,R,ugm-3,20.8,R,ugm-3,21.4,R,ugm-3,54,R,ugm-3,8,R,ugm-3 (TEOM),8.0,R,ugm-3
01-01-2005,23:00,10,R,ugm-3 (GRAV EQ),0.4,R,ugm-3,1.5,R,ugm-3,2.1,R,ugm-3,70,R,ugm-3,5,R,ugm-3 (TEOM),0.0,R,ugm-3
01-01-2005,24:00,12,R,ugm-3 (GRAV EQ),0.0,R,ugm-3,2.7,R,ugm-3,2.7,R,ugm-3,66,R,ugm-3,5,R,ugm-3 (TEOM),0.0,R,ugm-3
02-01-2005,01:00,13,R,ugm-3 (GRAV EQ),0.0,R,ugm-3,2.9,R,ugm-3,2.9,R,ugm-3,66,R,ugm-3,6,R,ugm-3 (TEOM),0.0,R,ugm-3
02-01-2005,02:00,13,R,ugm-3 (GRAV EQ),,,,,,,,,,54,R,ugm-3,6,R,ugm-3 (TEOM),4.5,R,ugm-3
02-01-2005,03:00,13,R,ugm-3 (GRAV EQ),0.4,R,ugm-3,12.8,R,ugm-3,13.4,R,ugm-3,52,R,ugm-3,6,R,ugm-3 (TEOM),6.7,R,ugm-3
02-01-2005,04:00,14,R,ugm-3 (GRAV EQ),0.4,R,ugm-3,22.9,R,ugm-3,23.5,R,ugm-3,44,R,ugm-3,6,R,ugm-3 (TEOM),10.1,R,ugm-3
02-01-2005,05:00,13,R,ugm-3 (GRAV EQ),0.8,R,ugm-3,8.0,R,ugm-3,9.2,R,ugm-3,58,R,ugm-3,5,R,ugm-3 (TEOM),4.8,R,ugm-3
02-01-2005,06:00,14,R,ugm-3 (GRAV EQ),0.0,R,ugm-3,0.0,R,ugm-3,0.0,R,ugm-3,70,R,ugm-3,6,R,ugm-3 (TEOM),0.0,R,ugm-3
02-01-2005,07:00,17,R,ugm-3 (GRAV EQ),0.0,R,ugm-3,0.0,R,ugm-3,0.0,R,ugm-3,72,R,ugm-3,6,R,ugm-3 (TEOM),0.0,R,ugm-3
02-01-2005,08:00,22,R,ugm-3 (GRAV EQ),0.0,R,ugm-3,1.5,R,ugm-3,1.5,R,ugm-3,72,R,ugm-3,7,R,ugm-3 (TEOM),0.0,R,ugm-3
02-01-2005,09:00,18,R,ugm-3 (GRAV EQ),0.0,R,ugm-3,3.6,R,ugm-3,3.6,R,ugm-3,68,R,ugm-3,7,R,ugm-3 (TEOM),0.0,R,ugm-3
02-01-2005,10:00,20,R,ugm-3 (GRAV EQ),0.8,R,ugm-3,1.5,R,ugm-3,2.7,R,ugm-3,66,R,ugm-3,8,R,ugm-3 (TEOM),0.0,R,ugm-3
02-01-2005,11:00,18,R,ugm-3 (GRAV EQ),2.1,R,ugm-3,2.7,R,ugm-3,5.9,R,ugm-3,60,R,ugm-3,8,R,ugm-3 (TEOM),1.3,R,ugm-3
02-01-2005,12:00,18,R,ugm-3 (GRAV EQ),5.5,R,ugm-3,13.6,R,ugm-3,22.0,R,ugm-3,48,R,ugm-3,7,R,ugm-3 (TEOM),12.0,R,ugm-3
02-01-2005,13:00,18,R,ugm-3 (GRAV EQ),7.3,R,ugm-3,18.9,R,ugm-3,30.0,R,ugm-3,40,R,ugm-3,9,R,ugm-3 (TEOM),20.7,R,ugm-3
02-01-2005,14:00,20,R,ugm-3 (GRAV EQ),6.5,R,ugm-3,22.0,R,ugm-3,31.9,R,ugm-3,40,R,ugm-3,8,R,ugm-3 (TEOM),18.6,R,ugm-3
02-01-2005,15:00,17,R,ugm-3 (GRAV EQ),2.8,R,ugm-3,19.9,R,ugm-3,24.1,R,ugm-3,40,R,ugm-3,7,R,ugm-3 (TEOM),8.8,R,ugm-3
02-01-2005,16:00,16,R,ugm-3 (GRAV EQ),1.4,R,ugm-3,14.9,R,ugm-3,17.0,R,ugm-3,48,R,ugm-3,7,R,ugm-3 (TEOM),4.8,R,ugm-3
02-01-2005,17:00,17,R,ugm-3 (GRAV EQ),0.8,R,ugm-3,26.2,R,ugm-3,27.3,R,ugm-3,32,R,ugm-3,8,R,ugm-3 (TEOM),8.0,R,ugm-3
02-01-2005,18:00,16,R,ugm-3 (GRAV EQ),0.4,R,ugm-3,19.7,R,ugm-3,20.2,R,ugm-3,40,R,ugm-3,7,R,ugm-3 (TEOM),1.3,R,ugm-3
02-01-2005,19:00,18,R,ugm-3 (GRAV EQ),0.0,R,ugm-3,13.9,R,ugm-3,13.9,R,ugm-3,46,R,ugm-3,10,R,ugm-3 (TEOM),0.8,R,ugm-3
02-01-2005,20:00,17,R,ugm-3 (GRAV EQ),0.0,R,ugm-3,8.6,R,ugm-3,8.6,R,ugm-3,52,R,ugm-3,8,R,ugm-3 (TEOM),0.0,R,ugm-3
02-01-2005,21:00,17,R,ugm-3 (GRAV EQ),0.4,R,ugm-3,8.0,R,ugm-3,8.6,R,ugm-3,50,R,ugm-3,8,R,ugm-3 (TEOM),0.0,R,ugm-3
02-01-2005,22:00,18,R,ugm-3 (GRAV EQ),0.0,R,ugm-3,8.6,R,ugm-3,8.6,R,ugm-3,48,R,ugm-3,9,R,ugm-3 (TEOM),0.0,R,ugm-3
02-01-2005,23:00,17,R,ugm-3 (GRAV EQ),0.0,R,ugm-3,10.7,R,ugm-3,10.7,R,ugm-3,44,R,ugm-3,8,R,ugm-3 (TEOM),0.0,R,ugm-3
02-01-2005,24:00,18,R,ugm-3 (GRAV EQ),1.0,R,ugm-3,25.6,R,ugm-3,27.1,R,ugm-3,26,R,ugm-3,8,R,ugm-3 (TEOM),8.8,R,ugm-3
03-01-2005,01:00,16,R,ugm-3 (GRAV EQ),0.0,R,ugm-3,18.3,R,ugm-3,18.3,R,ugm-3,38,R,ugm-3,7,R,ugm-3 (TEOM),1.9,R,ugm-3
03-01-2005,02:00,16,R,ugm-3 (GRAV EQ),,,,,,,,,,40,R,ugm-3,6,R,ugm-3 (TEOM),0.0,R,ugm-3
03-01-2005,03:00,17,R,ugm-3 (GRAV EQ),0.8,R,ugm-3,4.2,R,ugm-3,5.3,R,ugm-3,52,R,ugm-3,7,R,ugm-3 (TEOM),0.0,R,ugm-3
03-01-2005,04:00,20,R,ugm-3 (GRAV EQ),0.8,R,ugm-3,3.6,R,ugm-3,4.8,R,ugm-3,54,R,ugm-3,7,R,ugm-3 (TEOM),0.0,R,ugm-3
03-01-2005,05:00,21,R,ugm-3 (GRAV EQ),0.4,R,ugm-3,6.3,R,ugm-3,6.9,R,ugm-3,52,R,ugm-3,7,R,ugm-3 (TEOM),0.0,R,ugm-3
03-01-2005,06:00,18,R,ugm-3 (GRAV EQ),0.4,R,ugm-3,4.8,R,ugm-3,5.3,R,ugm-3,56,R,ugm-3,6,R,ugm-3 (TEOM),0.0,R,ugm-3
03-01-2005,07:00,17,R,ugm-3 (GRAV EQ),0.4,R,ugm-3,4.8,R,ugm-3,5.3,R,ugm-3,54,R,ugm-3,6,R,ugm-3 (TEOM),0.0,R,ugm-3
03-01-2005,08:00,17,R,ugm-3 (GRAV EQ),0.4,R,ugm-3,8.6,R,ugm-3,9.2,R,ugm-3,46,R,ugm-3,7,R,ugm-3 (TEOM),0.0,R,ugm-3
03-01-2005,09:00,16,R,ugm-3 (GRAV EQ),0.4,R,ugm-3,5.7,R,ugm-3,6.3,R,ugm-3,56,R,ugm-3,6,R,ugm-3 (TEOM),0.0,R,ugm-3
03-01-2005,10:00,18,R,ugm-3 (GRAV EQ),0.8,R,ugm-3,7.4,R,ugm-3,8.6,R,ugm-3,54,R,ugm-3,8,R,ugm-3 (TEOM),0.0,R,ugm-3
03-01-2005,11:00,20,R,ugm-3 (GRAV EQ),4.1,R,ugm-3,16.6,R,ugm-3,22.9,R,ugm-3,42,R,ugm-3,8,R,ugm-3 (TEOM),8.0,R,ugm-3
03-01-2005,12:00,18,R,ugm-3 (GRAV EQ),7.6,R,ugm-3,31.7,R,ugm-3,43.4,R,ugm-3,30,R,ugm-3,8,R,ugm-3 (TEOM),17.3,R,ugm-3
03-01-2005,13:00,13,R,ugm-3 (GRAV EQ),2.8,R,ugm-3,5.9,R,ugm-3,10.1,R,ugm-3,58,R,ugm-3,6,R,ugm-3 (TEOM),1.3,R,ugm-3
03-01-2005,14:00,10,R,ugm-3 (GRAV EQ),1.4,R,ugm-3,4.2,R,ugm-3,6.3,R,ugm-3,64,R,ugm-3,5,R,ugm-3 (TEOM),0.8,R,ugm-3
03-01-2005,15:00,12,R,ugm-3 (GRAV EQ),1.0,R,ugm-3,4.8,R,ugm-3,6.3,R,ugm-3,62,R,ugm-3,6,R,ugm-3 (TEOM),0.0,R,ugm-3
03-01-2005,16:00,12,R,ugm-3 (GRAV EQ),0.0,R,ugm-3,6.3,R,ugm-3,6.3,R,ugm-3,62,R,ugm-3,6,R,ugm-3 (TEOM),0.0,R,ugm-3
03-01-2005,17:00,12,R,ugm-3 (GRAV EQ),0.4,R,ugm-3,9.2,R,ugm-3,9.7,R,ugm-3,54,R,ugm-3,7,R,ugm-3 (TEOM),0.0,R,ugm-3
03-01-2005,18:00,14,R,ugm-3 (GRAV EQ),0.8,R,ugm-3,13.9,R,ugm-3,15.1,R,ugm-3,46,R,ugm-3,8,R,ugm-3 (TEOM),0.0,R,ugm-3
03-01-2005,19:00,14,R,ugm-3 (GRAV EQ),0.4,R,ugm-3,16.0,R,ugm-3,16.6,R,ugm-3,42,R,ugm-3,9,R,ugm-3 (TEOM),0.8,R,ugm-3
03-01-2005,20:00,12,R,ugm-3 (GRAV EQ),0.4,R,ugm-3,12.2,R,ugm-3,12.8,R,ugm-3,48,R,ugm-3,7,R,ugm-3 (TEOM),0.0,R,ugm-3
03-01-2005,21:00,9,R,ugm-3 (GRAV EQ),0.4,R,ugm-3,8.0,R,ugm-3,8.6,R,ugm-3,56,R,ugm-3,5,R,ugm-3 (TEOM),1.3,R,ugm-3
03-01-2005,22:00,7,R,ugm-3 (GRAV EQ),0.0,R,ugm-3,4.2,R,ugm-3,4.2,R,ugm-3,66,R,ugm-3,3,R,ugm-3 (TEOM),0.0,R,ugm-3
03-01-2005,23:00,7,R,ugm-3 (GRAV EQ),0.0,R,ugm-3,4.2,R,ugm-3,4.2,R,ugm-3,68,R,ugm-3,3,R,ugm-3 (TEOM),0.0,R,ugm-3
03-01-2005,24:00,9,R,ugm-3 (GRAV EQ),0.0,R,ugm-3,2.1,R,ugm-3,2.1,R,ugm-3,72,R,ugm-3,4,R,ugm-3 (TEOM),0.0,R,ugm-3
04-01-2005,01:00,10,R,ugm-3 (GRAV EQ),0.9,R,ugm-3,0.8,R,ugm-3,2.1,R,ugm-3,72,R,ugm-3,4,R,ugm-3 (TEOM),1.9,R,ugm-3
04-01-2005,02:00,13,R,ugm-3 (GRAV EQ),,,,,,,,,,70,R,ugm-3,5,R,ugm-3 (TEOM),0.8,R,ugm-3
04-01-2005,03:00,16,R,ugm-3 (GRAV EQ),0.4,R,ugm-3,1.5,R,ugm-3,2.1,R,ugm-3,76,R,ugm-3,6,R,ugm-3 (TEOM),0.0,R,ugm-3
04-01-2005,04:00,16,R,ugm-3 (GRAV EQ),0.4,R,ugm-3,1.5,R,ugm-3,2.1,R,ugm-3,74,R,ugm-3,6,R,ugm-3 (TEOM),0.0,R,ugm-3
04-01-2005,05:00,14,R,ugm-3 (GRAV EQ),0.4,R,ugm-3,1.5,R,ugm-3,2.1,R,ugm-3,78,R,ugm-3,5,R,ugm-3 (TEOM),0.0,R,ugm-3
04-01-2005,06:00,17,R,ugm-3 (GRAV EQ),0.0,R,ugm-3,3.6,R,ugm-3,3.6,R,ugm-3,72,R,ugm-3,6,R,ugm-3 (TEOM),0.0,R,ugm-3
04-01-2005,07:00,17,R,ugm-3 (GRAV EQ),0.4,R,ugm-3,4.8,R,ugm-3,5.3,R,ugm-3,72,R,ugm-3,6,R,ugm-3 (TEOM),0.0,R,ugm-3
04-01-2005,08:00,18,R,ugm-3 (GRAV EQ),0.8,R,ugm-3,5.5,R,ugm-3,6.7,R,ugm-3,72,R,ugm-3,7,R,ugm-3 (TEOM),0.0,R,ugm-3
04-01-2005,09:00,20,R,ugm-3 (GRAV EQ),1.0,R,ugm-3,5.0,R,ugm-3,6.5,R,ugm-3,70,R,ugm-3,9,R,ugm-3 (TEOM),0.0,R,ugm-3
04-01-2005,10:00,18,R,ugm-3 (GRAV EQ),1.0,R,ugm-3,5.9,R,ugm-3,7.4,R,ugm-3,68,R,ugm-3,7,R,ugm-3 (TEOM),0.0,R,ugm-3
04-01-2005,11:00,,,,,,,,,,,,,,,,3,R,ugm-3 (TEOM),,,
04-01-2005,12:00,13,R,ugm-3 (GRAV EQ),0.9,R,ugm-3,5.7,R,ugm-3,7.1,R,ugm-3,64,R,ugm-3,2,R,ugm-3 (TEOM),0.0,R,ugm-3
04-01-2005,13:00,16,R,ugm-3 (GRAV EQ),1.0,R,ugm-3,5.0,R,ugm-3,6.5,R,ugm-3,70,R,ugm-3,4,R,ugm-3 (TEOM),0.0,R,ugm-3
04-01-2005,14:00,17,R,ugm-3 (GRAV EQ),1.8,R,ugm-3,3.8,R,ugm-3,6.5,R,ugm-3,72,R,ugm-3,7,R,ugm-3 (TEOM),0.0,R,ugm-3
04-01-2005,15:00,14,R,ugm-3 (GRAV EQ),1.8,R,ugm-3,5.9,R,ugm-3,8.6,R,ugm-3,68,R,ugm-3,6,R,ugm-3 (TEOM),0.0,R,ugm-3
04-01-2005,16:00,9,R,ugm-3 (GRAV EQ),1.0,R,ugm-3,12.8,R,ugm-3,14.3,R,ugm-3,62,R,ugm-3,6,R,ugm-3 (TEOM),0.0,R,ugm-3
04-01-2005,17:00,12,R,ugm-3 (GRAV EQ),0.8,R,ugm-3,10.1,R,ugm-3,11.3,R,ugm-3,62,R,ugm-3,7,R,ugm-3 (TEOM),0.0,R,ugm-3
04-01-2005,18:00,8,R,ugm-3 (GRAV EQ),1.0,R,ugm-3,9.2,R,ugm-3,10.7,R,ugm-3,64,R,ugm-3,6,R,ugm-3 (TEOM),0.0,R,ugm-3
04-01-2005,19:00,8,R,ugm-3 (GRAV EQ),0.0,R,ugm-3,11.3,R,ugm-3,11.3,R,ugm-3,58,R,ugm-3,6,R,ugm-3 (TEOM),0.0,R,ugm-3
04-01-2005,20:00,7,R,ugm-3 (GRAV EQ),0.8,R,ugm-3,11.3,R,ugm-3,12.4,R,ugm-3,52,R,ugm-3,4,R,ugm-3 (TEOM),1.3,R,ugm-3
04-01-2005,21:00,8,R,ugm-3 (GRAV EQ),0.4,R,ugm-3,22.9,R,ugm-3,23.5,R,ugm-3,40,R,ugm-3,4,R,ugm-3 (TEOM),0.8,R,ugm-3
04-01-2005,22:00,12,R,ugm-3 (GRAV EQ),0.4,R,ugm-3,30.0,R,ugm-3,30.6,R,ugm-3,32,R,ugm-3,5,R,ugm-3 (TEOM),0.0,R,ugm-3
04-01-2005,23:00,16,R,ugm-3 (GRAV EQ),0.0,R,ugm-3,32.5,R,ugm-3,32.5,R,ugm-3,24,R,ugm-3,7,R,ugm-3 (TEOM),0.0,R,ugm-3
04-01-2005,24:00,14,R,ugm-3 (GRAV EQ),1.8,R,ugm-3,49.1,R,ugm-3,51.8,R,ugm-3,6,R,ugm-3,7,R,ugm-3 (TEOM),0.0,R,ugm-3
05-01-2005,01:00,12,R,ugm-3 (GRAV EQ),1.9,R,ugm-3,38.4,R,ugm-3,41.3,R,ugm-3,10,R,ugm-3,5,R,ugm-3 (TEOM),0.0,R,ugm-3
05-01-2005,02:00,14,R,ugm-3 (GRAV EQ),,,,,,,,,,20,R,ugm-3,6,R,ugm-3 (TEOM),0.0,R,ugm-3
05-01-2005,03:00,14,R,ugm-3 (GRAV EQ),1.0,R,ugm-3,14.9,R,ugm-3,16.4,R,ugm-3,32,R,ugm-3,4,R,ugm-3 (TEOM),0.8,R,ugm-3
05-01-2005,04:00,14,R,ugm-3 (GRAV EQ),0.0,R,ugm-3,13.4,R,ugm-3,13.4,R,ugm-3,38,R,ugm-3,4,R,ugm-3 (TEOM),0.0,R,ugm-3
05-01-2005,05:00,16,R,ugm-3 (GRAV EQ),0.4,R,ugm-3,19.7,R,ugm-3,20.2,R,ugm-3,30,R,ugm-3,5,R,ugm-3 (TEOM),0.0,R,ugm-3
05-01-2005,06:00,16,R,ugm-3 (GRAV EQ),0.8,R,ugm-3,27.9,R,ugm-3,29.0,R,ugm-3,20,R,ugm-3,5,R,ugm-3 (TEOM),0.0,R,ugm-3
05-01-2005,07:00,17,R,ugm-3 (GRAV EQ),2.4,R,ugm-3,33.6,R,ugm-3,37.2,R,ugm-3,14,R,ugm-3,6,R,ugm-3 (TEOM),0.0,R,ugm-3
05-01-2005,08:00,17,R,ugm-3 (GRAV EQ),3.8,R,ugm-3,44.9,R,ugm-3,50.6,R,ugm-3,6,R,ugm-3,6,R,ugm-3 (TEOM),0.0,R,ugm-3
05-01-2005,09:00,20,R,ugm-3 (GRAV EQ),5.1,R,ugm-3,48.3,R,ugm-3,56.2,R,ugm-3,10,R,ugm-3,9,R,ugm-3 (TEOM),0.0,R,ugm-3
05-01-2005,10:00,21,R,ugm-3 (GRAV EQ),8.3,R,ugm-3,44.5,R,ugm-3,57.1,R,ugm-3,12,R,ugm-3,9,R,ugm-3 (TEOM),5.3,R,ugm-3
05-01-2005,11:00,20,R,ugm-3 (GRAV EQ),5.9,R,ugm-3,39.7,R,ugm-3,48.7,R,ugm-3,22,R,ugm-3,7,R,ugm-3 (TEOM),4.0,R,ugm-3
05-01-2005,12:00,16,R,ugm-3 (GRAV EQ),5.1,R,ugm-3,34.8,R,ugm-3,42.6,R,ugm-3,28,R,ugm-3,6,R,ugm-3 (TEOM),0.8,R,ugm-3
05-01-2005,13:00,14,R,ugm-3 (GRAV EQ),3.8,R,ugm-3,30.0,R,ugm-3,35.7,R,ugm-3,38,R,ugm-3,7,R,ugm-3 (TEOM),0.0,R,ugm-3
05-01-2005,14:00,12,R,ugm-3 (GRAV EQ),2.8,R,ugm-3,26.7,R,ugm-3,30.9,R,ugm-3,40,R,ugm-3,6,R,ugm-3 (TEOM),0.8,R,ugm-3
05-01-2005,15:00,10,R,ugm-3 (GRAV EQ),2.8,R,ugm-3,22.5,R,ugm-3,26.7,R,ugm-3,46,R,ugm-3,4,R,ugm-3 (TEOM),0.0,R,ugm-3
05-01-2005,16:00,10,R,ugm-3 (GRAV EQ),1.8,R,ugm-3,15.5,R,ugm-3,18.1,R,ugm-3,56,R,ugm-3,5,R,ugm-3 (TEOM),0.0,R,ugm-3
05-01-2005,17:00,10,R,ugm-3 (GRAV EQ),1.8,R,ugm-3,14.3,R,ugm-3,17.0,R,ugm-3,56,R,ugm-3,4,R,ugm-3 (TEOM),0.0,R,ugm-3
05-01-2005,18:00,10,R,ugm-3 (GRAV EQ),1.4,R,ugm-3,12.8,R,ugm-3,14.9,R,ugm-3,60,R,ugm-3,4,R,ugm-3 (TEOM),0.0,R,ugm-3
05-01-2005,19:00,14,R,ugm-3 (GRAV EQ),1.0,R,ugm-3,12.8,R,ugm-3,14.3,R,ugm-3,60,R,ugm-3,5,R,ugm-3 (TEOM),0.0,R,ugm-3
05-01-2005,20:00,16,R,ugm-3 (GRAV EQ),0.4,R,ugm-3,10.7,R,ugm-3,11.3,R,ugm-3,64,R,ugm-3,6,R,ugm-3 (TEOM),0.0,R,ugm-3
05-01-2005,21:00,17,R,ugm-3 (GRAV EQ),0.4,R,ugm-3,8.0,R,ugm-3,8.6,R,ugm-3,64,R,ugm-3,7,R,ugm-3 (TEOM),0.0,R,ugm-3
05-01-2005,22:00,14,R,ugm-3 (GRAV EQ),0.8,R,ugm-3,4.4,R,ugm-3,5.5,R,ugm-3,68,R,ugm-3,8,R,ugm-3 (TEOM),0.0,R,ugm-3
05-01-2005,23:00,10,R,ugm-3 (GRAV EQ),0.4,R,ugm-3,5.3,R,ugm-3,5.9,R,ugm-3,68,R,ugm-3,6,R,ugm-3 (TEOM),0.0,R,ugm-3
05-01-2005,24:00,12,R,ugm-3 (GRAV EQ),0.4,R,ugm-3,7.6,R,ugm-3,8.2,R,ugm-3,62,R,ugm-3,7,R,ugm-3 (TEOM),0.8,R,ugm-3
06-01-2005,01:00,12,R,ugm-3 (GRAV EQ),0.9,R,ugm-3,7.3,R,ugm-3,8.6,R,ugm-3,58,R,ugm-3,6,R,ugm-3 (TEOM),2.7,R,ugm-3
06-01-2005,02:00,17,R,ugm-3 (GRAV EQ),,,,,,,,,,50,R,ugm-3,9,R,ugm-3 (TEOM),3.5,R,ugm-3
06-01-2005,03:00,22,R,ugm-3 (GRAV EQ),0.0,R,ugm-3,19.3,R,ugm-3,19.3,R,ugm-3,42,R,ugm-3,9,R,ugm-3 (TEOM),8.0,R,ugm-3
06-01-2005,04:00,22,R,ugm-3 (GRAV EQ),0.0,R,ugm-3,11.8,R,ugm-3,11.8,R,ugm-3,48,R,ugm-3,9,R,ugm-3 (TEOM),3.5,R,ugm-3
06-01-2005,05:00,21,R,ugm-3 (GRAV EQ),0.4,R,ugm-3,10.7,R,ugm-3,11.3,R,ugm-3,44,R,ugm-3,7,R,ugm-3 (TEOM),2.7,R,ugm-3
06-01-2005,06:00,26,R,ugm-3 (GRAV EQ),0.8,R,ugm-3,14.5,R,ugm-3,15.7,R,ugm-3,36,R,ugm-3,10,R,ugm-3 (TEOM),2.7,R,ugm-3
06-01-2005,07:00,25,R,ugm-3 (GRAV EQ),1.8,R,ugm-3,27.3,R,ugm-3,30.0,R,ugm-3,22,R,ugm-3,9,R,ugm-3 (TEOM),2.7,R,ugm-3
06-01-2005,08:00,25,R,ugm-3 (GRAV EQ),2.8,R,ugm-3,39.0,R,ugm-3,43.2,R,ugm-3,10,R,ugm-3,9,R,ugm-3 (TEOM),2.1,R,ugm-3
06-01-2005,09:00,27,R,ugm-3 (GRAV EQ),5.9,R,ugm-3,45.6,R,ugm-3,54.6,R,ugm-3,8,R,ugm-3,10,R,ugm-3 (TEOM),3.5,R,ugm-3
06-01-2005,10:00,33,R,ugm-3 (GRAV EQ),5.1,R,ugm-3,33.2,R,ugm-3,41.1,R,ugm-3,22,R,ugm-3,11,R,ugm-3 (TEOM),4.8,R,ugm-3
06-01-2005,11:00,31,R,ugm-3 (GRAV EQ),7.6,R,ugm-3,30.6,R,ugm-3,42.2,R,ugm-3,26,R,ugm-3,12,R,ugm-3 (TEOM),3.5,R,ugm-3
06-01-2005,12:00,31,R,ugm-3 (GRAV EQ),7.6,R,ugm-3,25.8,R,ugm-3,37.4,R,ugm-3,34,R,ugm-3,13,R,ugm-3 (TEOM),4.8,R,ugm-3
06-01-2005,13:00,27,R,ugm-3 (GRAV EQ),3.5,R,ugm-3,18.7,R,ugm-3,24.1,R,ugm-3,44,R,ugm-3,10,R,ugm-3 (TEOM),5.3,R,ugm-3
06-01-2005,14:00,25,R,ugm-3 (GRAV EQ),2.8,R,ugm-3,13.9,R,ugm-3,18.1,R,ugm-3,50,R,ugm-3,9,R,ugm-3 (TEOM),3.5,R,ugm-3
06-01-2005,15:00,27,R,ugm-3 (GRAV EQ),2.4,R,ugm-3,11.8,R,ugm-3,15.5,R,ugm-3,50,R,ugm-3,10,R,ugm-3 (TEOM),2.7,R,ugm-3
06-01-2005,16:00,29,R,ugm-3 (GRAV EQ),2.1,R,ugm-3,10.1,R,ugm-3,13.4,R,ugm-3,52,R,ugm-3,10,R,ugm-3 (TEOM),2.7,R,ugm-3
06-01-2005,17:00,31,R,ugm-3 (GRAV EQ),1.4,R,ugm-3,12.2,R,ugm-3,14.3,R,ugm-3,54,R,ugm-3,10,R,ugm-3 (TEOM),2.7,R,ugm-3
06-01-2005,18:00,31,R,ugm-3 (GRAV EQ),1.0,R,ugm-3,10.7,R,ugm-3,12.2,R,ugm-3,56,R,ugm-3,11,R,ugm-3 (TEOM),2.7,R,ugm-3
06-01-2005,19:00,22,R,ugm-3 (GRAV EQ),0.4,R,ugm-3,10.1,R,ugm-3,10.7,R,ugm-3,60,R,ugm-3,9,R,ugm-3 (TEOM),2.7,R,ugm-3
06-01-2005,20:00,12,R,ugm-3 (GRAV EQ),0.8,R,ugm-3,7.6,R,ugm-3,8.8,R,ugm-3,60,R,ugm-3,6,R,ugm-3 (TEOM),2.7,R,ugm-3
06-01-2005,21:00,5,R,ugm-3 (GRAV EQ),0.0,R,ugm-3,5.3,R,ugm-3,5.3,R,ugm-3,66,R,ugm-3,3,R,ugm-3 (TEOM),2.7,R,ugm-3
06-01-2005,22:00,8,R,ugm-3 (GRAV EQ),0.4,R,ugm-3,5.0,R,ugm-3,5.5,R,ugm-3,66,R,ugm-3,5,R,ugm-3 (TEOM),2.1,R,ugm-3
06-01-2005,23:00,10,R,ugm-3 (GRAV EQ),0.4,R,ugm-3,2.1,R,ugm-3,2.7,R,ugm-3,72,R,ugm-3,5,R,ugm-3 (TEOM),2.7,R,ugm-3
06-01-2005,24:00,13,R,ugm-3 (GRAV EQ),0.4,R,ugm-3,2.7,R,ugm-3,3.2,R,ugm-3,70,R,ugm-3,6,R,ugm-3 (TEOM),2.7,R,ugm-3
07-01-2005,01:00,13,R,ugm-3 (GRAV EQ),0.9,R,ugm-3,2.9,R,ugm-3,4.2,R,ugm-3,70,R,ugm-3,7,R,ugm-3 (TEOM),2.7,R,ugm-3
07-01-2005,02:00,10,R,ugm-3 (GRAV EQ),,,,,,,,,,72,R,ugm-3,5,R,ugm-3 (TEOM),2.7,R,ugm-3
07-01-2005,03:00,10,R,ugm-3 (GRAV EQ),0.8,R,ugm-3,3.2,R,ugm-3,4.4,R,ugm-3,72,R,ugm-3,5,R,ugm-3 (TEOM),2.7,R,ugm-3
07-01-2005,04:00,10,R,ugm-3 (GRAV EQ),0.4,R,ugm-3,6.5,R,ugm-3,7.1,R,ugm-3,70,R,ugm-3,5,R,ugm-3 (TEOM),2.1,R,ugm-3
07-01-2005,05:00,8,R,ugm-3 (GRAV EQ),0.4,R,ugm-3,7.1,R,ugm-3,7.6,R,ugm-3,68,R,ugm-3,5,R,ugm-3 (TEOM),2.7,R,ugm-3
07-01-2005,06:00,8,R,ugm-3 (GRAV EQ),0.0,R,ugm-3,7.6,R,ugm-3,7.6,R,ugm-3,62,R,ugm-3,5,R,ugm-3 (TEOM),2.1,R,ugm-3
07-01-2005,07:00,8,R,ugm-3 (GRAV EQ),0.4,R,ugm-3,8.0,R,ugm-3,8.6,R,ugm-3,62,R,ugm-3,5,R,ugm-3 (TEOM),2.7,R,ugm-3
07-01-2005,08:00,14,R,ugm-3 (GRAV EQ),0.4,R,ugm-3,8.6,R,ugm-3,9.2,R,ugm-3,62,R,ugm-3,7,R,ugm-3 (TEOM),2.1,R,ugm-3
07-01-2005,09:00,20,R,ugm-3 (GRAV EQ),0.4,R,ugm-3,11.3,R,ugm-3,11.8,R,ugm-3,60,R,ugm-3,9,R,ugm-3 (TEOM),2.7,R,ugm-3
07-01-2005,10:00,22,R,ugm-3 (GRAV EQ),1.4,R,ugm-3,10.7,R,ugm-3,12.8,R,ugm-3,60,R,ugm-3,10,R,ugm-3 (TEOM),2.7,R,ugm-3
07-01-2005,11:00,21,R,ugm-3 (GRAV EQ),1.4,R,ugm-3,7.6,R,ugm-3,9.7,R,ugm-3,62,R,ugm-3,10,R,ugm-3 (TEOM),2.7,R,ugm-3
07-01-2005,12:00,21,R,ugm-3 (GRAV EQ),2.1,R,ugm-3,6.5,R,ugm-3,9.7,R,ugm-3,64,R,ugm-3,9,R,ugm-3 (TEOM),2.7,R,ugm-3
07-01-2005,13:00,22,R,ugm-3 (GRAV EQ),1.4,R,ugm-3,6.5,R,ugm-3,8.6,R,ugm-3,64,R,ugm-3,9,R,ugm-3 (TEOM),2.7,R,ugm-3
07-01-2005,14:00,21,R,ugm-3 (GRAV EQ),2.1,R,ugm-3,5.5,R,ugm-3,8.8,R,ugm-3,64,R,ugm-3,9,R,ugm-3 (TEOM),2.7,R,ugm-3
07-01-2005,15:00,22,R,ugm-3 (GRAV EQ),1.4,R,ugm-3,6.5,R,ugm-3,8.6,R,ugm-3,64,R,ugm-3,10,R,ugm-3 (TEOM),2.1,R,ugm-3
07-01-2005,16:00,21,R,ugm-3 (GRAV EQ),0.4,R,ugm-3,8.0,R,ugm-3,8.6,R,ugm-3,64,R,ugm-3,9,R,ugm-3 (TEOM),2.7,R,ugm-3
07-01-2005,17:00,22,R,ugm-3 (GRAV EQ),0.4,R,ugm-3,8.0,R,ugm-3,8.6,R,ugm-3,66,R,ugm-3,9,R,ugm-3 (TEOM),2.7,R,ugm-3
07-01-2005,18:00,20,R,ugm-3 (GRAV EQ),0.8,R,ugm-3,7.1,R,ugm-3,8.2,R,ugm-3,68,R,ugm-3,8,R,ugm-3 (TEOM),2.1,R,ugm-3
07-01-2005,19:00,14,R,ugm-3 (GRAV EQ),1.0,R,ugm-3,5.3,R,ugm-3,6.9,R,ugm-3,68,R,ugm-3,6,R,ugm-3 (TEOM),2.7,R,ugm-3
07-01-2005,20:00,13,R,ugm-3 (GRAV EQ),0.4,R,ugm-3,6.5,R,ugm-3,7.1,R,ugm-3,70,R,ugm-3,5,R,ugm-3 (TEOM),2.7,R,ugm-3
07-01-2005,21:00,16,R,ugm-3 (GRAV EQ),0.4,R,ugm-3,7.6,R,ugm-3,8.2,R,ugm-3,68,R,ugm-3,7,R,ugm-3 (TEOM),2.7,R,ugm-3
07-01-2005,22:00,17,R,ugm-3 (GRAV EQ),0.4,R,ugm-3,11.3,R,ugm-3,11.8,R,ugm-3,58,R,ugm-3,9,R,ugm-3 (TEOM),6.1,R,ugm-3
07-01-2005,23:00,18,R,ugm-3 (GRAV EQ),0.4,R,ugm-3,12.8,R,ugm-3,13.4,R,ugm-3,60,R,ugm-3,11,R,ugm-3 (TEOM),4.0,R,ugm-3
07-01-2005,24:00,20,R,ugm-3 (GRAV EQ),0.8,R,ugm-3,9.7,R,ugm-3,10.9,R,ugm-3,62,R,ugm-3,11,R,ugm-3 (TEOM),6.1,R,ugm-3
08-01-2005,01:00,17,R,ugm-3 (GRAV EQ),0.5,R,ugm-3,7.3,R,ugm-3,8.0,R,ugm-3,66,R,ugm-3,9,R,ugm-3 (TEOM),7.2,R,ugm-3
08-01-2005,02:00,26,R,ugm-3 (GRAV EQ),,,,,,,,,,56,R,ugm-3,11,R,ugm-3 (TEOM),6.4,R,ugm-3
08-01-2005,03:00,25,R,ugm-3 (GRAV EQ),1.4,R,ugm-3,11.3,R,ugm-3,13.4,R,ugm-3,64,R,ugm-3,11,R,ugm-3 (TEOM),2.7,R,ugm-3
08-01-2005,04:00,25,R,ugm-3 (GRAV EQ),1.8,R,ugm-3,11.3,R,ugm-3,13.9,R,ugm-3,60,R,ugm-3,11,R,ugm-3 (TEOM),10.1,R,ugm-3
08-01-2005,05:00,21,R,ugm-3 (GRAV EQ),3.5,R,ugm-3,19.9,R,ugm-3,25.2,R,ugm-3,50,R,ugm-3,10,R,ugm-3 (TEOM),40.7,R,ugm-3
08-01-2005,06:00,17,R,ugm-3 (GRAV EQ),1.4,R,ugm-3,13.9,R,ugm-3,16.0,R,ugm-3,62,R,ugm-3,9,R,ugm-3 (TEOM),2.7,R,ugm-3
08-01-2005,07:00,14,R,ugm-3 (GRAV EQ),0.0,R,ugm-3,4.8,R,ugm-3,4.8,R,ugm-3,72,R,ugm-3,9,R,ugm-3 (TEOM),2.7,R,ugm-3
08-01-2005,08:00,10,R,ugm-3 (GRAV EQ),0.0,R,ugm-3,4.2,R,ugm-3,4.2,R,ugm-3,76,R,ugm-3,7,R,ugm-3 (TEOM),2.1,R,ugm-3
08-01-2005,09:00,17,R,ugm-3 (GRAV EQ),0.0,R,ugm-3,4.2,R,ugm-3,4.2,R,ugm-3,78,R,ugm-3,8,R,ugm-3 (TEOM),2.1,R,ugm-3
08-01-2005,10:00,17,R,ugm-3 (GRAV EQ),0.4,R,ugm-3,4.2,R,ugm-3,4.8,R,ugm-3,76,R,ugm-3,7,R,ugm-3 (TEOM),2.1,R,ugm-3
08-01-2005,11:00,14,R,ugm-3 (GRAV EQ),0.4,R,ugm-3,3.6,R,ugm-3,4.2,R,ugm-3,74,R,ugm-3,6,R,ugm-3 (TEOM),2.1,R,ugm-3
08-01-2005,12:00,18,R,ugm-3 (GRAV EQ),1.8,R,ugm-3,1.5,R,ugm-3,4.2,R,ugm-3,74,R,ugm-3,7,R,ugm-3 (TEOM),2.1,R,ugm-3
08-01-2005,13:00,20,R,ugm-3 (GRAV EQ),1.4,R,ugm-3,5.0,R,ugm-3,7.1,R,ugm-3,72,R,ugm-3,7,R,ugm-3 (TEOM),2.7,R,ugm-3
08-01-2005,14:00,25,R,ugm-3 (GRAV EQ),1.4,R,ugm-3,6.5,R,ugm-3,8.6,R,ugm-3,72,R,ugm-3,10,R,ugm-3 (TEOM),2.7,R,ugm-3
08-01-2005,15:00,23,R,ugm-3 (GRAV EQ),2.1,R,ugm-3,11.8,R,ugm-3,15.1,R,ugm-3,62,R,ugm-3,10,R,ugm-3 (TEOM),7.4,R,ugm-3
08-01-2005,16:00,21,R,ugm-3 (GRAV EQ),0.4,R,ugm-3,8.0,R,ugm-3,8.6,R,ugm-3,68,R,ugm-3,8,R,ugm-3 (TEOM),2.7,R,ugm-3
08-01-2005,17:00,23,R,ugm-3 (GRAV EQ),0.0,R,ugm-3,9.7,R,ugm-3,9.7,R,ugm-3,60,R,ugm-3,9,R,ugm-3 (TEOM),0.8,R,ugm-3
08-01-2005,18:00,22,R,ugm-3 (GRAV EQ),0.4,R,ugm-3,8.0,R,ugm-3,8.6,R,ugm-3,62,R,ugm-3,8,R,ugm-3 (TEOM),2.7,R,ugm-3
08-01-2005,19:00,25,R,ugm-3 (GRAV EQ),0.8,R,ugm-3,12.8,R,ugm-3,13.9,R,ugm-3,52,R,ugm-3,10,R,ugm-3 (TEOM),2.7,R,ugm-3
08-01-2005,20:00,25,R,ugm-3 (GRAV EQ),0.0,R,ugm-3,15.5,R,ugm-3,15.5,R,ugm-3,50,R,ugm-3,9,R,ugm-3 (TEOM),2.7,R,ugm-3
08-01-2005,21:00,26,R,ugm-3 (GRAV EQ),0.8,R,ugm-3,11.8,R,ugm-3,13.0,R,ugm-3,52,R,ugm-3,10,R,ugm-3 (TEOM),2.7,R,ugm-3
08-01-2005,22:00,26,R,ugm-3 (GRAV EQ),0.4,R,ugm-3,11.3,R,ugm-3,11.8,R,ugm-3,54,R,ugm-3,10,R,ugm-3 (TEOM),4.8,R,ugm-3
08-01-2005,23:00,23,R,ugm-3 (GRAV EQ),1.0,R,ugm-3,10.1,R,ugm-3,11.7,R,ugm-3,54,R,ugm-3,9,R,ugm-3 (TEOM),4.8,R,ugm-3
08-01-2005,24:00,25,R,ugm-3 (GRAV EQ),0.4,R,ugm-3,12.2,R,ugm-3,12.8,R,ugm-3,52,R,ugm-3,9,R,ugm-3 (TEOM),4.8,R,ugm-3
09-01-2005,01:00,22,R,ugm-3 (GRAV EQ),0.0,R,ugm-3,9.9,R,ugm-3,9.9,R,ugm-3,52,R,ugm-3,7,R,ugm-3 (TEOM),3.7,R,ugm-3
09-01-2005,02:00,21,R,ugm-3 (GRAV EQ),,,,,,,,,,54,R,ugm-3,7,R,ugm-3 (TEOM),5.6,R,ugm-3
09-01-2005,03:00,20,R,ugm-3 (GRAV EQ),0.4,R,ugm-3,5.9,R,ugm-3,6.5,R,ugm-3,58,R,ugm-3,6,R,ugm-3 (TEOM),3.5,R,ugm-3
09-01-2005,04:00,16,R,ugm-3 (GRAV EQ),0.8,R,ugm-3,4.4,R,ugm-3,5.5,R,ugm-3,60,R,ugm-3,6,R,ugm-3 (TEOM),3.5,R,ugm-3
09-01-2005,05:00,14,R,ugm-3 (GRAV EQ),0.4,R,ugm-3,2.1,R,ugm-3,2.7,R,ugm-3,64,R,ugm-3,6,R,ugm-3 (TEOM),2.7,R,ugm-3
09-01-2005,06:00,16,R,ugm-3 (GRAV EQ),0.4,R,ugm-3,2.7,R,ugm-3,3.2,R,ugm-3,62,R,ugm-3,6,R,ugm-3 (TEOM),2.7,R,ugm-3
09-01-2005,07:00,17,R,ugm-3 (GRAV EQ),0.4,R,ugm-3,3.2,R,ugm-3,3.8,R,ugm-3,62,R,ugm-3,6,R,ugm-3 (TEOM),0.8,R,ugm-3
09-01-2005,08:00,20,R,ugm-3 (GRAV EQ),0.0,R,ugm-3,6.5,R,ugm-3,6.5,R,ugm-3,62,R,ugm-3,6,R,ugm-3 (TEOM),2.7,R,ugm-3
09-01-2005,09:00,23,R,ugm-3 (GRAV EQ),1.0,R,ugm-3,10.1,R,ugm-3,11.7,R,ugm-3,58,R,ugm-3,7,R,ugm-3 (TEOM),2.7,R,ugm-3
09-01-2005,10:00,25,R,ugm-3 (GRAV EQ),2.8,R,ugm-3,10.7,R,ugm-3,14.9,R,ugm-3,52,R,ugm-3,8,R,ugm-3 (TEOM),2.7,R,ugm-3
09-01-2005,11:00,25,R,ugm-3 (GRAV EQ),2.4,R,ugm-3,10.7,R,ugm-3,14.3,R,ugm-3,58,R,ugm-3,8,R,ugm-3 (TEOM),2.7,R,ugm-3
09-01-2005,12:00,26,R,ugm-3 (GRAV EQ),2.8,R,ugm-3,8.6,R,ugm-3,12.8,R,ugm-3,60,R,ugm-3,9,R,ugm-3 (TEOM),4.0,R,ugm-3
09-01-2005,13:00,22,R,ugm-3 (GRAV EQ),2.8,R,ugm-3,6.5,R,ugm-3,10.7,R,ugm-3,62,R,ugm-3,6,R,ugm-3 (TEOM),6.9,R,ugm-3
09-01-2005,14:00,25,R,ugm-3 (GRAV EQ),5.5,R,ugm-3,23.1,R,ugm-3,31.5,R,ugm-3,48,R,ugm-3,7,R,ugm-3 (TEOM),81.9,R,ugm-3
09-01-2005,15:00,29,R,ugm-3 (GRAV EQ),2.1,R,ugm-3,8.2,R,ugm-3,11.5,R,ugm-3,62,R,ugm-3,8,R,ugm-3 (TEOM),16.5,R,ugm-3